Location: Bremen
(53.0793°N, 8.8017°E)
Time: 17:44:28
(UTC+01:00)

Transit 2A Rocket - Visible Passes

Search period start: 03 December 2022 00:00
Search period end: 13 December 2022 00:00
Orbit: 589 x 911 km, 66.7° (Epoch: 02 December)

Date Brightness Start Highest point End Pass type
(mag) Time Alt. Az. Time Alt. Az. Time Alt. Az.
03 Dec 5.7 16:52:47 10° WSW 16:57:07 40° NW 17:01:50 10° NNE visible
03 Dec 6.7 18:37:32 10° WNW 18:41:02 19° N 18:42:37 17° NNE visible
03 Dec 7.5 20:21:36 10° NNW 20:22:29 13° NNW 20:22:29 13° NNW visible
04 Dec 6.6 17:53:51 10° WNW 17:57:34 22° NNW 18:00:47 13° NNE visible
04 Dec 7.0 19:38:23 10° NW 19:40:39 17° N 19:40:39 17° N visible
05 Dec 6.3 17:10:12 10° W 17:14:11 26° NNW 17:18:29 10° NNE visible
05 Dec 6.8 18:55:01 10° NW 18:58:26 18° N 18:58:49 18° N visible
05 Dec 7.7 20:38:18 10° NNW 20:38:41 12° NNW 20:38:41 12° NNW visible
06 Dec 6.7 18:11:29 10° NW 18:14:55 18° N 18:16:59 15° NNE visible
06 Dec 7.2 19:55:15 10° NNW 19:56:52 17° NNW 19:56:52 17° NNW visible
07 Dec 6.6 17:27:50 10° WNW 17:31:27 20° NNW 17:35:10 11° NNE visible
07 Dec 6.8 19:12:06 10° NW 19:15:02 19° N 19:15:02 19° N visible
07 Dec 7.9 20:54:48 10° NNW 20:54:54 10° NNW 20:54:54 10° NNW visible
08 Dec 6.4 16:44:09 10° WNW 16:48:01 23° NNW 16:52:10 10° NNE visible
08 Dec 6.7 18:28:49 10° NW 18:32:21 18° N 18:33:13 18° NNE visible
08 Dec 7.3 20:11:51 10° NNW 20:13:05 16° NNW 20:13:05 16° NNW visible
09 Dec 6.7 17:45:22 10° NW 17:48:50 18° N 17:51:25 13° NNE visible
09 Dec 6.8 19:28:51 10° NNW 19:31:17 21° N 19:31:17 21° N visible
10 Dec 6.6 17:01:46 10° NW 17:05:19 19° N 17:09:06 10° NE visible
10 Dec 6.6 18:45:46 10° NNW 18:49:30 21° NNE 18:49:30 21° NNE visible
10 Dec 7.4 20:28:20 10° NW 20:29:22 16° NNW 20:29:22 16° NNW visible
11 Dec 6.6 18:02:33 10° NW 18:06:14 19° N 18:07:44 17° NNE visible
11 Dec 6.8 19:45:23 10° NNW 19:47:36 22° NNW 19:47:36 22° NNW visible
12 Dec 6.7 17:19:12 10° NW 17:22:44 18° N 17:25:59 12° NE visible
12 Dec 6.4 19:02:24 10° NNW 19:05:51 26° N 19:05:51 26° N visible
12 Dec 7.6 20:44:50 10° NW 20:45:44 15° NW 20:45:44 15° NW visible
